Regional Weather Roundup
Issued by NWS Pendleton, OR

Home | Current Version | Previous Version | Text Only | Print | Product List | Glossary On
Versions: 1 2 3 4 5 6 7 8 9 10 11 12 13 14 15 16 17 18 19 20 21 22 23 24 25 26 27 28 29 30 31 32 33 34 35 36 37 38 39 40 41 42 43 44 45 46 47 48 49 50
000
ASUS46 KPDT 230104
RWRPDT
PENDLETON REGIONAL WEATHER ROUNDUP
NATIONAL WEATHER SERVICE PENDLETON OREGON
500 PM PST WED FEB 22 2017

NOTE: FAIR INDICATES FEW OR NO CLOUDS BELOW 12,000 FEET WITH NO
SIGNIFICANT WEATHER AND/OR OBSTRUCTIONS TO VISIBILITY.

# INDICATES UNOFFICIAL STATION AND DATA

WAZ520-230210-
EAST SLOPES OF WASHINGTON CASCADES

CITY            SKY/WX      TMP DP  RH  WIND    PRES   REMARKS
#CLE ELUM HS    N/A         36  21  54  CALM    30.01S
#CLE ELUM LAKE  N/A         33  24  69  N1      30.10S
#GLENWOOD       N/A         38  28  67  CALM    30.11R
#MANASTASH CYN  N/A         34  18  51  CALM    30.00R
#NELSON 3SW     N/A         30  24  78  CALM    30.34S
#NILE           N/A         36  21  54  W1      29.36R
#TEANAWAY 4NE   N/A         38  24  57  CALM    N/A
#TROUT LAKE 1NE N/A         37  26  64  W8      30.11S
#TROUT LAKE 1E  N/A         39  24  54  CALM    30.08F
$$

WAZ521-230210-
SIMCOE HIGHLANDS

CITY            SKY/WX      TMP DP  RH  WIND    PRES   REMARKS
#BICKLETON HS   N/A         34  25  69  W6      29.66S
#CENTERVILLE 1SWN/A         34  28  78  W8      30.09S
#GOLDENDALE 1NE N/A         39  21  48  CALM    N/A
#GOLDENDALE 4W  N/A         39  13  34  W8      30.09S
#GOODNOE HILLS  N/A         42  27  55  W8      29.98S
#LYLE 6NE       N/A         41  32  70  SW10    30.09S
#PITT 4SE       N/A         35  29  78  SW10    30.16R
$$

WAZ026-230210-
KITTITAS VALLEY

CITY            SKY/WX      TMP DP  RH  WIND    PRES   REMARKS
ELLENSBURG AP   PTCLDY      37  24  59  NW9     30.05R
#ELLENSBURG CWU N/A         42  25  51  NW5     30.04R
#ELLENSBURG 3NE N/A         36  26  67  N2      28.12R
#ELLENSBURG 1E  N/A         40  N/A N/A CALM    N/A
#KITTITAS 4N    N/A         36  24  61  NW6     30.07R
#KITTITAS 3S    N/A         37  27  67  S2      30.10S
#THORP 6N       N/A         34  23  64  W17G24  30.12S WCI 23
$$

WAZ027-230210-
YAKIMA VALLEY

CITY            SKY/WX      TMP DP  RH  WIND    PRES   REMARKS
SUNNYSIDE AP    MOCLDY      41  26  55  S3      30.09S
YAKIMA AIRPORT  PTCLDY      44  25  47  SW3     30.08R
YAKIMA-VAGABOND MOCLDY      40  24  52  S6      30.05R
#DONALD 2NE     N/A         44  -9  10  S1      28.93R
#GRANDVIEW      N/A         44  22  41  NW2     30.13S
#MABTON         N/A         44  27  51  W1      30.08S
#MOXEE 2E       N/A         41   0  17  S3      30.01R
#NACHES 2SW     N/A         39  27  62  CALM    30.07S
#TERRACE HTS    N/A         44  26  49  CALM    30.08R
#TOPPENISH      N/A         45  24  43  CALM    30.03S
#W YAKIMA       N/A         42  25  51  S2      30.11R
#WHITE SWAN 5E  N/A         41  31  67  CALM    30.12S
#WILEY CITY 3W  N/A         41  20  43  CALM    30.03S
$$

WAZ028-230210-
LOWER COLUMBIA BASIN...WASHINGTON

CITY            SKY/WX      TMP DP  RH  WIND    PRES   REMARKS
PASCO           CLOUDY      43  31  62  N9      30.10S
PROSSER AWOS    N/A         45  28  51  W6      30.12S
RICHLAND AWOS   PTCLDY      45  32  60  NE5     30.11R
#BENTON CITY    N/A         43  30  60  N3      30.02R
#CONNELL 5N     N/A         34  31  89  NW3     30.12S
#CONNELL 5NW    N/A         34  31  89  N5      30.08S
#ELTOPIA 6NW    N/A         38  33  82  CALM    29.05S
#KAHLOTUS       N/A         40  35  82  N9      30.10S
#KENNEWICK 3S   N/A         45  32  60  CALM    30.11S
#PATERSON       N/A         46  31  56  W1      30.09S
#TOUCHET 2S     N/A         45  35  68  W1      30.09S
#WEST PASCO     N/A         44  33  65  NE2     30.09S
$$

WAZ029-230210-
FOOTHILLS OF THE BLUES...WASHINGTON

CITY            SKY/WX      TMP DP  RH  WIND    PRES   REMARKS
WALLA WALLA AP  CLOUDY      43  29  57  W6      30.07S
#CLYDE 6NW      N/A         41  25  53  CALM    30.08F
#DAYTON SCHOOL  N/A         40  23  50  SW1     30.07S
#LOWDEN 2SE     N/A         46  32  58  W2      30.05S
#PLEASANT VIEW 1N/A         39  25  57  W5      30.14S
#PRESCOTT       N/A         44  33  65  CALM    30.09S
#WHITMAN COLLEGEN/A         44  30  58  W5      30.15S
#WAITSBURG 5S   N/A         39  31  73  NW1     30.20S
#WALLA WALLA 5E N/A         42  33  70  W1      N/A
#WALLA WALLA U  N/A         46  30  53  CALM    30.10S
#WHITMAN MISSIONN/A         46  31  56  CALM    30.11S
$$

WAZ030-230210-
BLUE MOUNTAINS...WASHINGTON

CITY            SKY/WX      TMP DP  RH  WIND    PRES   REMARKS
#DIXIE 5SE      N/A         32  28  85  SW8     29.93S
#SKI BLUEWOOD   N/A         24  21  88  N5      29.92S
$$

ORZ009-041-WAZ024-230210-
COLUMBIA RIVER GORGE

CITY            SKY/WX      TMP DP  RH  WIND    PRES   REMARKS
HOOD RIVER AP   PTCLDY      45  28  51  CALM    30.12S
THE DALLES AP   MOCLDY      48  27  44  W13     30.11S WCI 43
#ARLINGTON HS   N/A         46  26  45  CALM    30.01F
#CELILO DOT     N/A         45  25  45  SW6     N/A
#LYLE           N/A         46  32  58  W7      30.14S
#MOSIER 1S      N/A         42  17  36  CALM    30.09S
#MURDOCK        N/A         46  31  56  W9      30.12S
#RUFUS DOT      N/A         47  29  49  W12     N/A    WCI 42
#SMITHVILLE     N/A         46  33  60  N12     30.07S WCI 40

$$

ORZ510-230210-
NORTH CENTRAL OREGON

CITY            SKY/WX      TMP DP  RH  WIND    PRES   REMARKS
#CHENOWITH 1W   N/A         37  26  64  NW15    N/A    WCI 28
#COW CYN RST AREN/A         35  24  64  W6      N/A
#DUFUR 9E       N/A         36  26  67  NW10    30.18S
#GRASS VALLEY 1SN/A         37  26  64  NW8     30.19S
#KENT DOT       N/A         36  16  44  N12     N/A    WCI 28
#MAUPIN SCHOOL  N/A         43  24  47  CALM    30.12S
#MORO SCHOOL    N/A         38  30  73  W6      30.14S
#SHANIKO 5WSW   N/A         33  14  45  N10     N/A
#SHANIKO 4NW    N/A         31  22  69  N10     30.01S
#TYGH VALLEY 2NEN/A         43  26  51  N7      30.11R
#WAPANITIA AIRPON/A         42  25  51  CALM    30.13S
#WASCO DOT      N/A         41  24  50  SW7     N/A
#WASCO 5NE      N/A         36  29  75  N2      30.12S
$$

ORZ511-230210-
CENTRAL OREGON

CITY            SKY/WX      TMP DP  RH  WIND    PRES   REMARKS
BEND AIRPORT    MOCLDY      32  27  82  N5      30.03R
MADRAS AIRPORT  CLOUDY      39  21  48  NW15    30.07S WCI 31
PRINEVILLE AP   MOCLDY      36  21  54  NW9     30.02S
REDMOND AIRPORT CLOUDY      34  24  66  W5      30.03S
#ASHWOOD SCHOOL N/A         37  27  67  CALM    30.00R
#BEND 1SW       N/A         32  25  75  NE2     N/A
#BEND-AWBREY    N/A         31  27  85  NE2     30.14R
#BEND-KIM LN    N/A         34  27  75  NE3     30.09S
#CULVER         N/A         36  23  59  NW3     30.05S
#CULVER 8W      N/A         38  16  40  CALM    30.04R
#LAKE BILLY CHINN/A         37  N/A N/A NW10    30.16R
#POWELL BUTTE   N/A         32  25  75  W5      29.98R
#WARM SPRINGS   N/A         42  27  55  CALM    30.03S

$$


ORZ509-230210-
EAST SLOPES OF OREGON CASCADES

CITY            SKY/WX      TMP DP  RH  WIND    PRES   REMARKS
SISTERS AWOS    N/A         36  21  54  SW14    30.00R WCI 27
#BLUE BOX PASS  N/A         28  N/A N/A CALM    N/A
#CAMP SHERMAN   N/A         35  21  56  N1      30.20R
#LA PINE 4NW    N/A         28  24  85  CALM    30.18R
#LAVA BUTTE DOT N/A         30  14  51  CALM    N/A
#SISTERS ODOT   N/A         35  N/A N/A S3      N/A
#SISTERS 3N     N/A         33  17  51  CALM    29.99S
#SUNRIVER       N/A         32  20  61  CALM    30.14S
#TUMALO 3W      N/A         31  25  78  NE5     30.02R
#WANOGA BUTTE D N/A         21  17  84  CALM    N/A

$$

ORZ044-230210-
LOWER COLUMBIA BASIN...OREGON

CITY            SKY/WX      TMP DP  RH  WIND    PRES   REMARKS
HERMISTON       CLOUDY      44  30  58  S6      30.08S
#BOARDMAN SCHOOLN/A         48  29  47  N1      30.09S
#BOARDMAN 8SW   N/A         45  32  60  W2      30.10S
#ECHO 8SW       N/A         44  31  60  CALM    30.10S
#I-84 EX 198 DOTN/A         41  28  59  N3      N/A
#IONE SCHOOL    N/A         44  28  53  CALM    30.11S
#UMATILLA       N/A         48  31  51  CALM    30.03S
$$

ORZ507-230210-
NORTHERN FOOTHILLS OF THE BLUES

CITY            SKY/WX      TMP DP  RH  WIND    PRES   REMARKS
PENDLETON AIRPT CLOUDY      39  32  76  NW6     30.06S
#ADAMS 3WNW     N/A         41  31  67  CALM    30.10S
#ATHENA         N/A         39  32  76  CALM    30.13F
#CAYUSE         N/A         39  31  73  CALM    30.10S
#HELIX SCHOOL   N/A         40  31  70  N1      30.10F
#HELIX 3N       N/A         38  29  70  CALM    30.01S
#HOLDMAN 5SE    N/A         40  33  76  W2      30.05S
#HOLDMAN 6E     N/A         38  32  79  CALM    29.91S
#M-F FERNDALE   N/A         46  30  53  CALM    30.04F
#M-F GROVE ELEM N/A         43  26  51  CALM    30.04F
#M-FREEWATER 5SEN/A         40  32  73  CALM    30.06S
#PENDLETON DNTN N/A         43  30  60  CALM    30.07S
#PDT AQUATIC CTRN/A         41  30  65  CALM    30.07S
#PDT SUNRIDGE   N/A         41  32  70  CALM    30.08S
#PENDLETON 7NW  N/A         42  32  67  CALM    32.03S
#PILOT ROCK 1S  N/A         38  24  57  W2      30.06S
#PILOT ROCK     N/A         39  29  67  N1      30.07S
#TUTUILLA       N/A         41  31  67  CALM    30.09F
#UMAPINE 2E     N/A         45  32  60  SW1     30.05S
#WESTON SCHOOL  N/A         37  30  75  SE1     29.94F

$$

ORZ508-230210-
SOUTHERN FOOTHILLS OF THE BLUES

CITY            SKY/WX      TMP DP  RH  WIND    PRES   REMARKS
LEXINGTON       PTCLDY      41  27  57  CALM    30.09S
#AJAX           N/A         37  18  46  SW7     30.19S
#CONDON SCHOOL  N/A         34  26  72  NW5     29.98S
#CONDON 5W      N/A         31  23  72  NW7     29.98S
#HEPPNER EOC    N/A         38  27  64  W1      30.04S
#HEPPNER 4NE    N/A         34  26  72  NW1     30.11S
#LEXINGTON 2SE  N/A         42  27  55  N2      30.04S
#MIKKALO        N/A         39  27  62  NW6     30.18R
#OLEX 4N        N/A         40  32  73  W3      30.06S
#RUGGS 5NE      N/A         35  24  64  NW1     30.20S
#RUGGS 2SW      N/A         35  26  69  N3      30.14S

$$

ORZ502-503-230210-
BLUE MOUNTAINS

CITY            SKY/WX      TMP DP  RH  WIND    PRES   REMARKS
MEACHAM         CLOUDY      29  24  81  CALM    29.98S
#BATTLE MTN DOT N/A         27  23  85  N2      N/A
#HEPPNER 15SE   N/A         27  24  88  CALM    30.25R
#LADD CYN SMT   N/A         32  22  66  W10     N/A
#LADD CREEK ODOTN/A         34  21  58  CALM    N/A
#LONG CREEK HS  N/A         30  26  85  CALM    N/A
#N POWDER DOT   N/A         35  22  59  N16     N/A    WCI 25
#PIKES PEAK     N/A         28  27  96  CALM    27.99S
#TOLLGATE       N/A         23  22  96  CALM    29.80S
#TROY SCHOOL    N/A         36  33  89  CALM    29.93R
#UKIAH          N/A         32  25  75  N5      30.02R
#WESTON 4E      N/A         30  29  96  CALM    30.10S
$$

ORZ505-230210-
JOHN DAY BASIN

CITY            SKY/WX      TMP DP  RH  WIND    PRES   REMARKS
JOHN DAY        CLOUDY      33  27  78  NW5     29.98R
#ANTELOPE 9ESE  N/A         42  25  51  N1      N/A
#DAYVILLE SCHOOLN/A         38  20  48  VRB6    29.99R
#MITCHELL       N/A         37  24  59  CALM    30.17S
#MITCHELL 8NW   N/A         33  21  61  CALM    29.93S
#MONUMENT HS    N/A         40  21  46  E6      30.00S
#MT. VERNON 5SE N/A         32  24  72  N1      29.91S
#SPRAY SCHOOL   N/A         42  N/A N/A CALM    N/A
#WINLOCK        N/A         34  22  61  N2      29.98R
$$

ORZ506-230210-
OCHOCO AND JOHN DAY HIGHLANDS

CITY            SKY/WX      TMP DP  RH  WIND    PRES   REMARKS
#HORSE RIDGE DO N/A         30  21  69  N10     N/A
#PAULINA SCHOOL N/A         34  17  49  N8      N/A
#PINE MTN OBS   N/A         19  16  88  CALM    N/A
#SENECA         N/A         29  N/A N/A N6      N/A
#SENECA 9NW     N/A         29  22  75  CALM    30.04R
$$

ORZ049-230210-
GRANDE RONDE VALLEY

CITY            SKY/WX      TMP DP  RH  WIND    PRES   REMARKS
LA GRANDE       CLOUDY      36  25  64  NW14    29.98S WCI 27
#COVE           N/A         34  28  78  NW7     30.01S
#COVE SCHOOL    N/A         34  27  75  W1      29.99S
#COVE 6NW       N/A         35  27  72  N9      30.06S
#ELGIN 3N       N/A         35  20  54  CALM    29.97R
#ELGIN 1E       N/A         36  25  64  W9      N/A
#IMBLER SCHOOL  N/A         34  27  75  N3      29.96R
#ISLAND CITY 4N N/A         41  38  89  CALM    30.20R
#LADD CYN DOT   N/A         35  25  66  NW13    N/A    WCI 26
#UNION 1S       N/A         35  27  72  W8      30.07R
$$

ORZ050-230210-
WALLOWA COUNTY

CITY            SKY/WX      TMP DP  RH  WIND    PRES   REMARKS
#IMNAHA SCHOOL  N/A         40  30  67  N7      29.99R
#IMNAHA 10S     N/A         37  30  75  NE3     29.94S
#JOSEPH 3N      N/A         29  23  78  CALM    29.97S
#JOSEPH 3W      N/A         27  22  81  CALM    29.78S
#LOSTINE        N/A         31  28  88  CALM    29.85S
#LOSTINE 3SE    N/A         30  27  88  CALM    30.00S
#MT HOWARD 8000 N/A         15  13  92  NW2     29.74F
#PROMISE 1S     N/A         28  26  92  SW2     30.18R
#WALLOWA SCHOOL N/A         31  29  92  CALM    29.95S



$$



USA.gov is the U.S. government's official web portal to all federal, state and local government web resources and services.